ASIASAT 7

Last updated on Mon Oct 14 2024 00:02:39 GMT+0000 (Coordinated Universal Time)

1 37933U 11069A 24287.52896562 -.00000336 00000+0 00000+0 0 9999 2 37933 0.0252 133.0828 0001805 54.8443 130.6196 1.00270162 38728
UTC large
Height (km)
Speed (km/s)
/
Latitude / Longitude
Inclination (degrees)
Orbital Period (minutes)
Azimuth
Elevation
Range (km)
Doppler Factor

Next 0 passes for location: London (51.5072 / 0.1276)

Sorry there are no passes over London.